Regional Weather Roundup
Issued by NWS

Home | Current Version | Previous Version | Text Only | Print | Product List | Glossary Off
Versions: 1 2 3 4 5 6 7 8 9 10 11 12 13 14 15 16 17 18 19 20 21 22 23 24 25 26 27 28 29 30 31 32 33 34 35 36 37 38 39 40 41 42 43 44 45 46 47 48 49 50

000
ASUS45 KABQ 201701
RWRNM
WEATHER ROUNDUP FOR NEW MEXICO
NATIONAL WEATHER SERVICE ALBUQUERQUE NM
1100 AM MDT MON APR 20 2015

NOTE: "FAIR" MEANS FEW OR NO CLOUDS BELOW 12,000 FEET AGL WITH NO
       SIGNIFICANT WEATHER OR OBSTRUCTIONS TO VISION.

      THIS PRODUCT IS RELEASED AS TWO VERSIONS.  ONE VERSION NEAR
      THE TOP OF THE HOUR CONTAINING PRELIMINARY DATA FROM ALBUQUERQUE
      AND OTHER STATIONS.  A FINAL VERSION WITH ADDITIONAL DATA IS
      ISSUED ABOUT 10 MINUTES AFTER THE HOUR.

NMZ501-503-504-510>518-201800-
NORTHWEST PLATEAU/NORTHCENTRAL MOUNTAINS

CITY           SKY/WX    TMP DP  RH WIND       PRES   REMARKS
FARMINGTON     SUNNY     57  25  29 SE6       29.97F
SANTA FE       SUNNY     53  26  35 S8        30.03F
ANGEL FIRE     FAIR      47  26  43 W17G25    30.04F

$$
NMZ402-403-502-505>509-201800-
WESTCENTRAL MOUNTAINS/SOUTHWEST MOUNTAINS

CITY           SKY/WX    TMP DP  RH WIND       PRES   REMARKS
GALLUP         SUNNY     62  22  21 W12       30.04F
GRANTS         PTSUNNY   62  21  20 NE6       30.04F
SILVER CITY      N/A     66  23  19 S6        30.05S

$$
NMZ407-409-411-412-201800-
SOUTHERN DESERTS

CITY           SKY/WX    TMP DP  RH WIND       PRES   REMARKS
DEMING         SUNNY     70  29  21 SE3       29.99F
ALAMOGORDO     SUNNY     64  32  29 CALM      30.02S
T OR C         SUNNY     67  25  20 VRB3      30.00F

$$
NMZ519>523-201800-
CENTRAL VALLEYS/CENTRAL HIGHLANDS

CITY           SKY/WX    TMP DP  RH WIND       PRES   REMARKS
ALBUQUERQUE    MOSUNNY   60  27  28 VRB5      30.03S
DOUBLE EAGLE   SUNNY     55  28  35 CALM      30.04F
CLINES CORNERS SUNNY     56  26  31 SW8       30.04S
BELEN          FAIR      62  26  24 S8        30.02F
SOCORRO        NOT AVBL

$$
NMZ524>526-539-540-201800-
SOUTHCENTRAL MOUNTAINS

CITY           SKY/WX    TMP DP  RH WIND       PRES   REMARKS
RUIDOSO        NOT AVBL

$$
NMZ527>531-201800-
NORTHEAST HIGHLANDS/NORTHEAST PLAINS

CITY           SKY/WX    TMP DP  RH WIND       PRES   REMARKS
LAS VEGAS      SUNNY     50  28  42 S20G30    30.02F
RATON          SUNNY     48  33  56 VRB7      30.00F
CLAYTON        SUNNY     54  28  36 SW20G28   30.03F

$$
NMZ532>537-201800-
EASTCENTRAL PLAINS

CITY           SKY/WX    TMP DP  RH WIND       PRES   REMARKS
TUCUMCARI      SUNNY     59  30  33 S9G22     30.04F
CANNON AFB     NOT AVBL
CLOVIS AIRPORT SUNNY     55  28  35 S13G21    30.08F

$$
NMZ028-029-538-201800-
SOUTHEAST PLAINS

CITY           SKY/WX    TMP DP  RH WIND       PRES   REMARKS
ROSWELL        SUNNY     60  39  45 S10G24    30.07F
ARTESIA        SUNNY     61  37  41 SE18G26   30.07F
CARLSBAD       SUNNY     63  35  35 SE18      30.05F
HOBBS          SUNNY     57  36  44 E10G18    30.10S


$$



USA.gov is the U.S. government's official web portal to all federal, state and local government web resources and services.